Total_Precipitation_Accumulation
0.01 0.01 0.06 0.14 0.18 0.23 0.36 0.33 0.16 0.09 0.06 0.06 0.06 0.06 0.06 0.07 0.13 0.25 0.45 0.52 0.56 0.53 0.49 0.48 0.43 0.37 0.28 0.21 0.20 0.20 0.19 0.17 0.16 0.13 0.13 0.13 0.13 0.10 0.07 0.08 0.07 0.09 0.12
0.00 0.01 0.04 0.14 0.18 0.21 0.27 0.28 0.19 0.12 0.08 0.05 0.04 0.03 0.03 0.05 0.10 0.23 0.38 0.49 0.57 0.61 0.56 0.49 0.36 0.25 0.20 0.17 0.18 0.17 0.14 0.10 0.08 0.07 0.08 0.09 0.10 0.09 0.07 0.09 0.08 0.06 0.09
0.01 0.02 0.04 0.06 0.07 0.08 0.10 0.13 0.15 0.15 0.15 0.10 0.06 0.06 0.11 0.16 0.23 0.31 0.35 0.44 0.54 0.56 0.50 0.39 0.27 0.21 0.18 0.17 0.14 0.13 0.08 0.05 0.05 0.04 0.04 0.06 0.06 0.04 0.02 0.04 0.06 0.11 0.13
0.01 0.02 0.02 0.02 0.02 0.02 0.05 0.09 0.14 0.14 0.13 0.10 0.08 0.12 0.18 0.25 0.29 0.30 0.31 0.34 0.36 0.38 0.34 0.25 0.17 0.13 0.10 0.08 0.07 0.07 0.05 0.03 0.01 0.01 0.01 0.01 0.02 0.01 0.01 0.01 0.02 0.07 0.14
0.02 0.06 0.06 0.03 0.02 0.01 0.03 0.05 0.07 0.07 0.05 0.06 0.08 0.13 0.18 0.22 0.25 0.26 0.26 0.23 0.23 0.20 0.15 0.10 0.07 0.05 0.04 0.03 0.02 0.02 0.02 0.02 0.01 0.01 0.00 0.00 0.00 0.00 0.00 0.00 0.02 0.06 0.11
0.05 0.11 0.14 0.10 0.04 0.01 0.01 0.02 0.03 0.02 0.02 0.03 0.05 0.07 0.08 0.12 0.17 0.19 0.16 0.10 0.08 0.07 0.06 0.04 0.03 0.02 0.02 0.02 0.01 0.00 0.00 0.00 0.01 0.01 0.00 0.00 0.00 0.00 0.00 0.01 0.01 0.03 0.04
0.11 0.10 0.16 0.16 0.05 0.01 0.01 0.01 0.02 0.00 0.00 0.02 0.02 0.01 0.03 0.04 0.06 0.06 0.05 0.04 0.02 0.02 0.02 0.02 0.02 0.02 0.01 0.01 0.00 0.00 0.00 0.00 0.00 0.01 0.00 0.00 0.00 0.00 0.00 0.02 0.05 0.05 0.04
0.14 0.10 0.16 0.16 0.07 0.05 0.04 0.04 0.02 0.01 0.02 0.04 0.03 0.01 0.00 0.01 0.02 0.01 0.01 0.01 0.01 0.01 0.01 0.01 0.01 0.01 0.01 0.00 0.00 0.00 0.00 0.00 0.00 0.00 0.00 0.00 0.00 0.00 0.00 0.02 0.07 0.08 0.10
0.11 0.10 0.15 0.19 0.13 0.11 0.10 0.09 0.05 0.03 0.04 0.05 0.04 0.01 0.00 0.00 0.01 0.01 0.01 0.01 0.00 0.00 0.00 0.00 0.00 0.00 0.00 0.00 0.00 0.00 0.00 0.00 0.00 0.00 0.00 0.00 0.00 0.00 0.00 0.00 0.02 0.02 0.05
0.10 0.10 0.15 0.24 0.24 0.19 0.17 0.15 0.10 0.07 0.07 0.05 0.05 0.02 0.00 0.00 0.00 0.00 0.00 0.01 0.02 0.00 0.00 0.00 0.00 0.00 0.00 0.00 0.00 0.00 0.00 0.00 0.00 0.00 0.00 0.00 0.00 0.00 0.00 0.01 0.02 0.03 0.03
0.12 0.14 0.17 0.26 0.34 0.32 0.28 0.23 0.17 0.10 0.07 0.08 0.09 0.06 0.02 0.01 0.00 0.00 0.00 0.01 0.02 0.01 0.00 0.00 0.00 0.00 0.00 0.00 0.00 0.00 0.00 0.00 0.00 0.00 0.00 0.00 0.00 0.00 0.00 0.00 0.01 0.03 0.04
0.16 0.18 0.22 0.31 0.33 0.37 0.35 0.33 0.31 0.19 0.10 0.08 0.10 0.09 0.05 0.01 0.01 0.01 0.01 0.01 0.01 0.01 0.00 0.00 0.00 0.00 0.00 0.00 0.00 0.00 0.00 0.00 0.00 0.00 0.00 0.00 0.00 0.00 0.00 0.00 0.01 0.02 0.05
0.21 0.21 0.25 0.30 0.37 0.47 0.47 0.42 0.41 0.33 0.17 0.08 0.06 0.04 0.03 0.00 0.00 0.01 0.01 0.01 0.01 0.01 0.00 0.00 0.00 0.00 0.00 0.00 0.00 0.00 0.00 0.00 0.00 0.00 0.00 0.00 0.00 0.00 0.00 0.00 0.00 0.01 0.03
0.23 0.22 0.25 0.30 0.36 0.45 0.54 0.55 0.56 0.49 0.29 0.12 0.04 0.02 0.01 0.00 0.00 0.00 0.00 0.00 0.01 0.01 0.00 0.00 0.00 0.00 0.00 0.00 0.00 0.00 0.00 0.00 0.00 0.00 0.00 0.00 0.00 0.00 0.00 0.00 0.00 0.00 0.00
0.26 0.22 0.22 0.26 0.31 0.38 0.46 0.54 0.60 0.54 0.35 0.16 0.04 0.01 0.00 0.00 0.00 0.00 0.00 0.00 0.00 0.00 0.00 0.00 0.00 0.00 0.00 0.00 0.00 0.00 0.00 0.00 0.00 0.00 0.00 0.00 0.00 0.00 0.00 0.00 0.00 0.00 0.00
0.34 0.28 0.23 0.22 0.26 0.33 0.40 0.40 0.42 0.46 0.37 0.21 0.07 0.01 0.00 0.00 0.00 0.00 0.00 0.00 0.00 0.00 0.00 0.00 0.00 0.00 0.00 0.00 0.00 0.00 0.00 0.00 0.00 0.00 0.00 0.00 0.00 0.00 0.00 0.00 0.00 0.00 0.00
0.52 0.40 0.31 0.25 0.23 0.27 0.35 0.39 0.39 0.36 0.33 0.23 0.11 0.03 0.01 0.00 0.00 0.00 0.00 0.00 0.00 0.00 0.00 0.00 0.00 0.00 0.00 0.00 0.00 0.00 0.00 0.00 0.00 0.00 0.00 0.00 0.00 0.00 0.00 0.00 0.00 0.00 0.00
0.62 0.54 0.43 0.35 0.29 0.26 0.30 0.36 0.40 0.38 0.27 0.16 0.10 0.05 0.02 0.01 0.01 0.01 0.00 0.00 0.00 0.00 0.00 0.00 0.00 0.00 0.00 0.00 0.00 0.00 0.00 0.00 0.00 0.00 0.00 0.00 0.00 0.00 0.00 0.00 0.00 0.00 0.00
0.56 0.53 0.47 0.41 0.37 0.33 0.31 0.35 0.39 0.37 0.27 0.16 0.10 0.06 0.03 0.03 0.02 0.02 0.00 0.00 0.00 0.00 0.00 0.00 0.00 0.00 0.00 0.00 0.00 0.00 0.00 0.00 0.00 0.00 0.00 0.00 0.00 0.00 0.00 0.00 0.00 0.00 0.00
0.42 0.41 0.41 0.40 0.38 0.38 0.36 0.36 0.37 0.33 0.24 0.15 0.09 0.05 0.02 0.01 0.01 0.01 0.00 0.00 0.00 0.00 0.00 0.00 0.00 0.00 0.00 0.00 0.00 0.00 0.00 0.00 0.00 0.00 0.00 0.00 0.00 0.00 0.00 0.00 0.00 0.00 0.00
0.36 0.30 0.30 0.32 0.34 0.36 0.38 0.37 0.35 0.28 0.17 0.11 0.06 0.04 0.02 0.01 0.00 0.00 0.00 0.00 0.00 0.00 0.00 0.00 0.00 0.00 0.00 0.00 0.00 0.00 0.00 0.00 0.00 0.00 0.00 0.00 0.00 0.00 0.00 0.00 0.00 0.00 0.00
0.35 0.26 0.22 0.22 0.26 0.30 0.36 0.37 0.32 0.22 0.11 0.08 0.05 0.04 0.03 0.01 0.01 0.00 0.00 0.00 0.00 0.00 0.00 0.00 0.00 0.00 0.00 0.00 0.00 0.00 0.00 0.00 0.00 0.00 0.00 0.00 0.00 0.00 0.00 0.00 0.00 0.00 0.00
0.37 0.26 0.17 0.16 0.19 0.25 0.31 0.33 0.26 0.15 0.08 0.05 0.04 0.02 0.01 0.01 0.00 0.01 0.00 0.00 0.00 0.00 0.00 0.00 0.00 0.00 0.00 0.00 0.00 0.00 0.00 0.00 0.00 0.00 0.00 0.00 0.00 0.00 0.00 0.00 0.00 0.00 0.00
0.38 0.26 0.15 0.11 0.14 0.19 0.24 0.25 0.17 0.09 0.05 0.03 0.02 0.01 0.01 0.00 0.00 0.00 0.00 0.00 0.00 0.00 0.00 0.00 0.00 0.00 0.00 0.00 0.00 0.00 0.00 0.00 0.00 0.00 0.00 0.00 0.00 0.00 0.00 0.00 0.00 0.00 0.00
0.35 0.25 0.15 0.09 0.09 0.13 0.17 0.17 0.10 0.05 0.03 0.02 0.01 0.01 0.00 0.00 0.00 0.00 0.00 0.00 0.00 0.00 0.00 0.00 0.00 0.00 0.00 0.00 0.00 0.00 0.00 0.00 0.00 0.00 0.00 0.00 0.00 0.00 0.00 0.00 0.00 0.00 0.00
0.31 0.25 0.16 0.08 0.06 0.09 0.11 0.10 0.06 0.03 0.02 0.01 0.00 0.00 0.00 0.00 0.00 0.00 0.00 0.00 0.00 0.00 0.00 0.00 0.00 0.00 0.00 0.00 0.00 0.00 0.00 0.00 0.00 0.00 0.00 0.00 0.00 0.00 0.00 0.00 0.00 0.00 0.00